Tiempo cada hora Bartosze

Hoy, 25 Febrero, Jueves

Tiempo Temperatura Precipitaciones Viento Presión Humedad
00:00 +3°C° 0 mm 3 mps 759 mmHg 98%
01:00 +3°C° 0 mm 3 mps 759 mmHg 98%
02:00 +3°C° 0 mm 3 mps 759 mmHg 98%
03:00 +3°C° 0 mm 3 mps 758 mmHg 97%
04:00 +2°C° 0 mm 3 mps 758 mmHg 97%
05:00 +2°C° 0 mm 3 mps 758 mmHg 97%
06:00 +3°C° 0 mm 3 mps 758 mmHg 96%
07:00 +3°C° 0 mm 3 mps 758 mmHg 96%
08:00 +4°C° 0 mm 3 mps 758 mmHg 95%
09:00 +5°C° 0 mm 3 mps 758 mmHg 93%
10:00 +8°C° 0 mm 3 mps 758 mmHg 92%
11:00 +9°C° 0 mm 3 mps 758 mmHg 91%
12:00 +10°C° 0 mm 3 mps 758 mmHg 89%
13:00 +11°C° 0 mm 3 mps 758 mmHg 88%
14:00 +10°C° 0 mm 4 mps 757 mmHg 90%
15:00 +8°C° 0 mm 4 mps 756 mmHg 91%
16:00 +8°C° 0 mm 4 mps 756 mmHg 93%
17:00 +7°C° 0 mm 4 mps 756 mmHg 93%
18:00 +7°C° 0 mm 4 mps 756 mmHg 92%
19:00 +6°C° 0 mm 4 mps 755 mmHg 92%
20:00 +6°C° 0 mm 4 mps 755 mmHg 92%
21:00 +6°C° 0 mm 4 mps 755 mmHg 91%
22:00 +5°C° 0 mm 4 mps 755 mmHg 91%
23:00 +5°C° 0 mm 4 mps 755 mmHg 91%

Mañana, 26 Febrero, Viernes

Tiempo Temperatura Precipitaciones Viento Presión Humedad
00:00 +5°C° 0 mm 3 mps 755 mmHg 92%
01:00 +5°C° 0 mm 3 mps 755 mmHg 93%
02:00 +5°C° 0 mm 4 mps 754 mmHg 93%
03:00 +5°C° 0 mm 4 mps 754 mmHg 94%
04:00 +5°C° 0 mm 5 mps 753 mmHg 94%
05:00 +5°C° 0 mm 5 mps 754 mmHg 93%
06:00 +5°C° 0 mm 5 mps 754 mmHg 92%
07:00 +5°C° 0 mm 5 mps 754 mmHg 90%
08:00 +5°C° 0 mm 5 mps 754 mmHg 85%
09:00 +4°C° 0 mm 6 mps 754 mmHg 80%
10:00 +4°C° 0 mm 6 mps 754 mmHg 75%
11:00 +5°C° 0 mm 6 mps 754 mmHg 72%
12:00 +5°C° 0 mm 7 mps 754 mmHg 69%
13:00 +6°C° 0 mm 7 mps 754 mmHg 66%
14:00 +5°C° 0 mm 6 mps 753 mmHg 68%
15:00 +5°C° 0 mm 6 mps 753 mmHg 69%
16:00 +5°C° 0 mm 6 mps 752 mmHg 71%
17:00 +4°C° 0 mm 6 mps 752 mmHg 73%
18:00 +4°C° 0 mm 6 mps 752 mmHg 75%
19:00 +3°C° 0 mm 6 mps 752 mmHg 77%
20:00 +3°C° 0 mm 6 mps 752 mmHg 79%
21:00 +3°C° 0 mm 6 mps 752 mmHg 81%
22:00 +3°C° 0 mm 7 mps 752 mmHg 83%
23:00 +2°C° 0 mm 6 mps 752 mmHg 84%

Pasado mañana, 27 Febrero, Sábado

Tiempo Temperatura Precipitaciones Viento Presión Humedad
00:00 +2°C° 0 mm 6 mps 752 mmHg 85%
01:00 +2°C° 0 mm 6 mps 752 mmHg 85%
02:00 +2°C° 0 mm 6 mps 752 mmHg 86%
03:00 +2°C° 0 mm 6 mps 752 mmHg 87%
04:00 0°C° 0 mm 7 mps 751 mmHg 87%
05:00 0°C° 0 mm 7 mps 752 mmHg 87%
06:00 +1°C° 0 mm 6 mps 752 mmHg 87%
07:00 +1°C° 0 mm 6 mps 753 mmHg 87%
08:00 0°C° 0 mm 7 mps 753 mmHg 82%
09:00 +2°C° 0 mm 7 mps 754 mmHg 78%
10:00 +2°C° 0 mm 7 mps 754 mmHg 73%
11:00 +2°C° 0 mm 8 mps 754 mmHg 69%
12:00 +2°C° 0 mm 8 mps 755 mmHg 65%
13:00 +4°C° 0 mm 8 mps 755 mmHg 61%
14:00 +2°C° 0 mm 8 mps 755 mmHg 62%
15:00 +3°C° 0 mm 7 mps 756 mmHg 62%
16:00 +2°C° 0 mm 7 mps 756 mmHg 63%
17:00 +1°C° 0 mm 6 mps 756 mmHg 68%
18:00 -1°C° 0 mm 6 mps 757 mmHg 73%
19:00 -2°C° 0 mm 6 mps 758 mmHg 78%
20:00 -1°C° 0 mm 5 mps 758 mmHg 82%
21:00 -2°C° 0 mm 5 mps 758 mmHg 86%
22:00 -2°C° 0 mm 5 mps 759 mmHg 90%
23:00 -2°C° 0 mm 4 mps 759 mmHg 90%

28 Febrero, Domingo

Tiempo Temperatura Precipitaciones Viento Presión Humedad
00:00 -2°C° 0 mm 4 mps 759 mmHg 91%
01:00 -2°C° 0 mm 4 mps 759 mmHg 91%
02:00 -2°C° 0 mm 4 mps 759 mmHg 92%
03:00 -2°C° 0 mm 3 mps 759 mmHg 93%
04:00 -2°C° 0 mm 3 mps 759 mmHg 93%
05:00 -2°C° 0 mm 3 mps 760 mmHg 93%
06:00 -1°C° 0 mm 3 mps 760 mmHg 92%
07:00 -1°C° 0 mm 3 mps 760 mmHg 91%
08:00 0°C° 0 mm 3 mps 760 mmHg 85%
09:00 +2°C° 0 mm 2 mps 760 mmHg 79%
10:00 +3°C° 0 mm 2 mps 760 mmHg 72%
11:00 +3°C° 0 mm 3 mps 760 mmHg 70%
12:00 +4°C° 0 mm 3 mps 760 mmHg 68%
13:00 +4°C° 0 mm 3 mps 761 mmHg 66%
14:00 +4°C° 0 mm 3 mps 761 mmHg 70%
15:00 +3°C° 0 mm 3 mps 761 mmHg 73%
16:00 +3°C° 0 mm 3 mps 760 mmHg 76%
17:00 +2°C° 0 mm 3 mps 761 mmHg 82%
18:00 +2°C° 0 mm 3 mps 761 mmHg 87%
19:00 +1°C° 0 mm 3 mps 761 mmHg 92%
20:00 +1°C° 0 mm 3 mps 762 mmHg 93%
21:00 +1°C° 0 mm 3 mps 762 mmHg 94%
22:00 +1°C° 0 mm 3 mps 762 mmHg 95%
23:00 +1°C° 0 mm 3 mps 762 mmHg 95%

1 Marzo, Lunes

Tiempo Temperatura Precipitaciones Viento Presión Humedad
00:00 +1°C° 0 mm 3 mps 762 mmHg 95%
01:00 +1°C° 0 mm 3 mps 762 mmHg 94%
02:00 0°C° 0 mm 3 mps 762 mmHg 94%
03:00 0°C° 0 mm 3 mps 762 mmHg 94%
04:00 0°C° 0 mm 3 mps 762 mmHg 93%
05:00 0°C° 0 mm 3 mps 762 mmHg 93%
06:00 -1°C° 0 mm 4 mps 763 mmHg 93%
07:00 -1°C° 0 mm 4 mps 763 mmHg 92%
08:00 +1°C° 0 mm 4 mps 763 mmHg 87%
09:00 +3°C° 0 mm 4 mps 763 mmHg 82%
10:00 +4°C° 0 mm 4 mps 763 mmHg 76%
11:00 +5°C° 0 mm 4 mps 763 mmHg 74%
12:00 +6°C° 0 mm 4 mps 763 mmHg 71%
13:00 +7°C° 0 mm 4 mps 763 mmHg 69%
14:00 +7°C° 0 mm 3 mps 763 mmHg 71%
15:00 +7°C° 0 mm 3 mps 763 mmHg 73%
16:00 +7°C° 0 mm 3 mps 763 mmHg 75%
17:00 +5°C° 0 mm 3 mps 763 mmHg 80%
18:00 +4°C° 0 mm 3 mps 763 mmHg 85%
19:00 +3°C° 0 mm 3 mps 763 mmHg 90%
20:00 +2°C° 0 mm 3 mps 763 mmHg 90%
21:00 +2°C° 0 mm 3 mps 763 mmHg 90%
22:00 +2°C° 0 mm 3 mps 763 mmHg 90%
23:00 +2°C° 0 mm 3 mps 763 mmHg 89%

2 Marzo, Martes

Tiempo Temperatura Precipitaciones Viento Presión Humedad
00:00 +2°C° 0 mm 3 mps 763 mmHg 89%
01:00 0°C° 0 mm 4 mps 763 mmHg 88%
02:00 0°C° 0 mm 4 mps 762 mmHg 89%
03:00 0°C° 0 mm 4 mps 762 mmHg 90%
04:00 -1°C° 0 mm 4 mps 762 mmHg 91%
05:00 -1°C° 0 mm 4 mps 762 mmHg 92%
06:00 -1°C° 0 mm 4 mps 762 mmHg 92%
07:00 -1°C° 0 mm 4 mps 762 mmHg 92%
08:00 0°C° 0 mm 4 mps 762 mmHg 86%
09:00 +3°C° 0 mm 4 mps 762 mmHg 81%
10:00 +4°C° 0 mm 4 mps 763 mmHg 75%
11:00 +5°C° 0 mm 4 mps 762 mmHg 72%
12:00 +6°C° 0 mm 4 mps 762 mmHg 68%
13:00 +7°C° 0 mm 4 mps 762 mmHg 65%
14:00 +7°C° 0 mm 4 mps 762 mmHg 67%
15:00 +8°C° 0 mm 3 mps 762 mmHg 68%
16:00 +8°C° 0 mm 3 mps 762 mmHg 70%
17:00 +7°C° 0 mm 3 mps 762 mmHg 76%
18:00 +4°C° 0 mm 3 mps 762 mmHg 82%
19:00 +4°C° 0 mm 2 mps 762 mmHg 87%
20:00 +4°C° 0 mm 2 mps 762 mmHg 88%
21:00 +3°C° 0 mm 2 mps 762 mmHg 89%
22:00 +3°C° 0 mm 2 mps 762 mmHg 90%
23:00 +3°C° 0 mm 2 mps 762 mmHg 91%
Mostrar más

Necesitamos Su Consentimiento

Meteoprog y nuestros Proveedores de Servicios pueden almacenar y acceder a sus datos personales como cookies, identificadores de dispositivo u otras tecnologías similares de su dispositivo y procesar dichos datos para personalizar contenido y anuncios, además de ofrecer funciones de redes sociales y analizar el tráfico.

  • Almacenar y/o acceder a información en su dispositivo

    Se puede almacenar o acceder a cookies, identificadores de dispositivo u otra información de su dispositivo para los fines anteriormente indicados.

  • Anuncios y contenido personalizados, medición de anuncios y contenido, percepciones del público, y desarrollo de productos

    Los anuncios y el contenido pueden personalizarse en base a su perfil. Se pueden añadir más datos para personalizar mejor los anuncios y contenidos. Se puede medir el rendimiento de los anuncios y contenidos. Se puede obtener la percepción sobre el público que ha visto los anuncios y contenidos. Dichos datos pueden usarse para desarrollar o mejorar la experiencia del usuario, sistemas y software.

Al hacer clic en ‘Estoy De Acuerdo’ usted permitirá el uso de las cookies, identificadores de dispositivo, balizas web u otras tecnologías similares indicadas. Su configuración puede cambiarse desde el navegador de su dispositivo.

Para ciertos fines, los intereses legítimos pueden ser considerados por encima del consentimiento. Puede leer más sobre ello en nuestra Política de Privacidad y Cookies.